NAVSTAR 43 (USA 132) 1 24876U 97035A 25039.60596621 -.00000043 00000-0 00000-0 0 9993 2 24876 55.7530 117.8844 0086778 54.3251 306.5143 2.00562439202055 NAVSTAR 46 (USA 145) 1 25933U 99055A 25039.45119374 -.00000083 00000-0 00000-0 0 9995 2 25933 51.8928 316.9901 0115534 159.2532 19.5821 2.00562423185679 NAVSTAR 47 (USA 150) 1 26360U 00025A 25039.71557685 -.00000056 00000-0 00000-0 0 9999 2 26360 54.8485 39.2613 0039125 229.4444 300.4638 2.00560768181374 NAVSTAR 48 (USA 151) 1 26407U 00040A 25039.41692476 .00000080 00000-0 00000-0 0 9999 2 26407 54.9808 234.7835 0135498 298.3667 213.1240 2.00563700180047 NAVSTAR 49 (USA 154) 1 26605U 00071A 25039.26116889 -.00000044 00000-0 00000-0 0 9996 2 26605 55.3646 114.4776 0162253 261.6218 67.4454 2.00562908177608 NAVSTAR 50 (USA 156) 1 26690U 01004A 25038.36123938 -.00000046 00000-0 00000-0 0 9992 2 26690 54.8225 50.8323 0002556 344.4859 22.8621 1.91588033174064 NAVSTAR 51 (USA 166) 1 27663U 03005A 25040.18685957 .00000071 00000-0 00000+0 0 9999 2 27663 55.0161 234.5636 0143425 49.5079 78.9629 2.00561360161413 NAVSTAR 52 (USA 168) 1 27704U 03010A 25039.30210340 -.00000108 00000-0 00000-0 0 9996 2 27704 55.0383 344.2523 0260714 334.2474 92.2293 2.00571068160201 NAVSTAR 53 (USA 175) 1 28129U 03058A 25038.79810559 -.00000052 00000-0 00000-0 0 9998 2 28129 54.6991 41.7500 0070021 346.5675 13.2758 2.00566894154872 NAVSTAR 54 (USA 177) 1 28190U 04009A 25032.46915830 -.00000024 00000-0 00000-0 0 9998 2 28190 55.2542 295.8619 0099962 156.3700 313.2674 2.00571161152908 NAVSTAR 55 (USA 178) 1 28361U 04023A 25034.57656086 -.00000012 00000-0 00000-0 0 9990 2 28361 54.5411 106.8876 0153934 287.3018 82.0486 2.00558117151040 NAVSTAR 56 (USA 180) 1 28474U 04045A 25038.40758860 -.00000104 00000-0 00000-0 0 9990 2 28474 55.3691 344.7881 0167141 300.3113 182.2437 2.00563521148501 NAVSTAR 57 (USA 183) 1 28874U 05038A 25039.41911804 -.00000025 00000-0 00000-0 0 9990 2 28874 55.2928 293.0512 0134630 288.9985 185.6360 2.00569320141934 NAVSTAR 58 (USA 190) 1 29486U 06042A 25039.36997882 -.00000008 00000-0 00000-0 0 9991 2 29486 54.6811 170.9282 0105028 45.0381 294.1286 2.00569364134489 NAVSTAR 59 (USA 192) 1 29601U 06052A 25037.82883658 .00000091 00000-0 00000-0 0 9996 2 29601 55.0559 233.6529 0087985 84.4364 276.5955 2.00554729133476 NAVSTAR 60 (USA 196) 1 32260U 07047A 25034.14869588 -.00000012 00000-0 00000-0 0 9998 2 32260 53.7397 100.6824 0158903 79.6514 282.1989 2.00553493126805 NAVSTAR 61 (USA 199) 1 32384U 07062A 25037.20246125 -.00000034 00000-0 00000-0 0 9992 2 32384 55.4394 294.0387 0028500 154.0347 19.3843 2.00559825125567 NAVSTAR 62 (USA 201) 1 32711U 08012A 25040.04281984 -.00000019 00000-0 00000+0 0 9992 2 32711 54.4577 169.6077 0193248 241.3234 116.6809 2.00554243123866 NAVSTAR 64 (USA 206) 1 35752U 09043A 25039.60542451 -.00000043 00000-0 00000-0 0 9992 2 35752 55.8668 46.9032 0053481 75.0039 340.6031 2.00555347113464 NAVSTAR 65 (USA 213) 1 36585U 10022A 25037.66815211 .00000092 00000-0 00000-0 0 9990 2 36585 54.3740 228.5339 0121643 63.3946 152.0412 2.00563264107654 NAVSTAR 66 (USA 232) 1 37753U 11036A 25039.37566513 -.00000106 00000-0 00000-0 0 9999 2 37753 56.7370 351.2006 0131766 58.2495 17.3090 2.00567622 99377 NAVSTAR 67 (USA 239) 1 38833U 12053A 25037.23494302 .00000014 00000-0 00000-0 0 9995 2 38833 53.5283 163.9026 0162936 59.6841 301.8872 2.00561303 89499 NAVSTAR 68 (USA 242) 1 39166U 13023A 25039.59026633 -.00000014 00000-0 00000-0 0 9993 2 39166 54.9070 289.0314 0131732 46.2111 314.9322 2.00561947 85989 NAVSTAR 69 (USA 248) 1 39533U 14008A 25039.58894470 -.00000015 00000-0 00000-0 0 9997 2 39533 53.6083 169.4404 0075273 221.8088 137.5741 2.00555580 79780 NAVSTAR 70 (USA 251) 1 39741U 14026A 25039.37445309 -.00000106 00000-0 00000-0 0 9999 2 39741 56.6791 350.7121 0036313 317.7593 41.9547 2.00551523 78637 NAVSTAR 71 (USA 256) 1 40105U 14045A 25038.95675864 -.00000043 00000-0 00000-0 0 9990 2 40105 55.0446 108.1856 0028900 118.5930 241.7443 2.00552302 76165 NAVSTAR 72 (USA 258) 1 40294U 14068A 25038.83242274 -.00000038 00000-0 00000-0 0 9990 2 40294 56.6200 50.0658 0055180 63.7744 296.8336 2.00574810 75291 NAVSTAR 73 (USA 260) 1 40534U 15013A 25039.96767256 .00000064 00000-0 00000+0 0 9992 2 40534 53.2715 224.5859 0097406 34.1907 326.4404 2.00551109 72359 NAVSTAR 74 (USA 262) 1 40730U 15033A 25039.13116355 -.00000012 00000-0 00000+0 0 9993 2 40730 54.3881 287.4068 0103548 22.8852 337.6345 2.00554804 70105 NAVSTAR 75 (USA 265) 1 41019U 15062A 25039.18904792 -.00000038 00000-0 00000-0 0 9990 2 41019 56.5982 49.9076 0103010 228.1079 131.0483 2.00566573 67929 NAVSTAR 76 (USA 266) 1 41328U 16007A 25039.27609691 -.00000042 00000-0 00000-0 0 9998 2 41328 55.2322 109.0682 0086213 240.9787 118.2009 2.00550389 65938